P/2020 S7 ( PanSTARRS )

Japanese version
Home page
Updated on October 27, 2020

---------------------------------------------------------------------

* Profile

Discovery Date September 16, 2020
Magnitude 20.8 mag
Discoverer Pan-STARRS 1 telescope (Haleakala)

* Orbital Elements

Epoch 2020 Nov. 7.0 TT = JDT 2459160.5                                          
T 2020 Nov. 18.06857 TT                                 Rudenko                 
q   2.9610244            (2000.0)            P               Q                  
n   0.08754357     Peri.   40.40371     +0.97576205     -0.16228293             
a   5.0232701      Node   328.01925     +0.04316009     +0.80040258             
e   0.4105385      Incl.   16.09244     +0.21453583     +0.57707882             
P  11.3                                                                         
From 83 observations 2020 Aug. 22-Oct. 20, mean residual 0".4.                  

* Magnitudes Graph

        m1 = 14.0 + 5 log d + 10.0 log r

---------------------------------------------------------------------

The orbital elements are published on M.P.E.C. 2020-U243.
The magnitudes graphs are made with Comet for Windows.

---------------------------------------------------------------------

Copyright(C) Seiichi Yoshida (comet@aerith.net). All rights reserved.